| time (UTC) | temp F | wind direction | speed MPH | gust MPH | rain 1hr in | rain 24hr in | rain mn in | humidity % | barometer mb |
| 20260510032043 | 58 | 137 | 0.0 | 0.0 | 0.01 | 0.01 | 0.01 | 89 | 1008.5 |
| 20260510031524 | 58 | 137 | 0.0 | 0.0 | 0.01 | 0.01 | 0.01 | 89 | 1008.6 |
| 20260510031016 | 58 | 137 | 0.0 | 0.0 | 0.01 | 0.01 | 0.01 | 89 | 1008.6 |
| 20260510030514 | 58 | 137 | 0.0 | 4.0 | 0.01 | 0.01 | 0.01 | 89 | 1008.6 |
| 20260510025954 | 58 | 137 | 0.0 | 4.0 | 0.01 | 0.01 | 0.01 | 89 | 1008.6 |
| 20260510025446 | 59 | 137 | 0.0 | 2.0 | 0.01 | 0.01 | 0.01 | 89 | 1008.6 |
| 20260510024942 | 59 | 137 | 0.0 | 2.0 | 0.01 | 0.01 | 0.01 | 89 | 1008.7 |
| 20260510024434 | 59 | 137 | 0.0 | 3.0 | 0.01 | 0.01 | 0.01 | 89 | 1008.7 |
| 20260510023920 | 59 | 137 | 0.0 | 4.0 | 0.01 | 0.01 | 0.01 | 89 | 1008.8 |
| 20260510023417 | 59 | 138 | 0.0 | 3.0 | 0.01 | 0.01 | 0.01 | 89 | 1008.8 |
| 20260510023148 | 59 | 140 | 0.0 | 3.0 | 0.00 | 0.00 | 0.00 | 88 | 1008.8 |
| 20260510022414 | 59 | 140 | 0.0 | 0.0 | 0.00 | 0.00 | 0.00 | 88 | 1008.8 |
| 20260510021912 | 59 | 140 | 0.0 | 1.0 | 0.00 | 0.00 | 0.00 | 88 | 1008.8 |
| 20260510021616 | 59 | 140 | 0.0 | 1.0 | 0.00 | 0.00 | 0.00 | 87 | 1008.9 |
| 20260510020838 | 59 | 140 | 0.0 | 1.0 | 0.00 | 0.00 | 0.00 | 87 | 1009.0 |
| 20260510020324 | 59 | 140 | 0.0 | 1.0 | 0.00 | 0.00 | 0.00 | 87 | 1009.0 |
| 20260510015822 | 59 | 140 | 0.0 | 2.0 | 0.00 | 0.00 | 0.00 | 87 | 1009.1 |
| 20260510015546 | 59 | 140 | 0.0 | 2.0 | 0.00 | 0.00 | 0.00 | 86 | 1008.9 |
| 20260510014813 | 60 | 140 | 0.0 | 2.0 | 0.00 | 0.00 | 0.00 | 86 | 1009.0 |
| 20260510014321 | 60 | 140 | 0.0 | 0.0 | 0.00 | 0.00 | 0.00 | 85 | 1008.9 |
| 20260510014314 | 60 | 140 | 0.0 | 0.0 | 0.00 | 0.00 | 0.00 | 85 | 1009.0 |
| 20260510013307 | 60 | 140 | 0.0 | 0.0 | 0.00 | 0.00 | 0.00 | 84 | 1008.7 |
| 20260510012753 | 60 | 140 | 0.0 | 0.0 | 0.00 | 0.00 | 0.00 | 84 | 1008.9 |
| 20260510012245 | 60 | 140 | 0.0 | 1.0 | 0.00 | 0.00 | 0.00 | 84 | 1008.8 |
| 20260510011950 | 60 | 140 | 0.0 | 1.0 | 0.00 | 0.00 | 0.00 | 84 | 1009.0 |
| 20260510011218 | 60 | 140 | 0.0 | 0.0 | 0.00 | 0.00 | 0.00 | 83 | 1008.8 |
| 20260510010710 | 60 | 140 | 0.0 | 0.0 | 0.00 | 0.00 | 0.00 | 83 | 1009.0 |
| 20260510010426 | 60 | 140 | 0.0 | 1.0 | 0.00 | 0.00 | 0.00 | 83 | 1009.1 |
| 20260510005925 | 60 | 140 | 0.0 | 1.0 | 0.00 | 0.00 | 0.00 | 83 | 1009.1 |
| 20260510005135 | 61 | 148 | 0.0 | 0.0 | 0.00 | 0.00 | 0.00 | 82 | 1009.1 |
| 20260510004620 | 61 | 152 | 0.0 | 0.0 | 0.00 | 0.00 | 0.00 | 82 | 1009.1 |
| 20260510004117 | 61 | 202 | 0.0 | 0.0 | 0.00 | 0.00 | 0.00 | 82 | 1009.1 |
| 20260510003610 | 61 | 202 | 0.0 | 0.0 | 0.00 | 0.00 | 0.00 | 81 | 1009.3 |
| 20260510003105 | 61 | 206 | 0.0 | 0.0 | 0.00 | 0.00 | 0.00 | 81 | 1009.4 |
| 20260510002607 | 61 | 210 | 0.0 | 0.0 | 0.00 | 0.00 | 0.00 | 82 | 1009.4 |
| 20260510002317 | 61 | 210 | 0.0 | 0.0 | 0.00 | 0.00 | 0.00 | 81 | 1009.3 |
| 20260510001537 | 61 | 210 | 0.0 | 4.0 | 0.00 | 0.00 | 0.00 | 81 | 1009.3 |
| 20260510001035 | 61 | 210 | 0.0 | 4.0 | 0.00 | 0.00 | 0.00 | 81 | 1009.2 |
| 20260510000527 | 61 | 213 | 0.0 | 1.0 | 0.00 | 0.00 | 0.00 | 81 | 1009.4 |
| 20260510000016 | 61 | 213 | 0.0 | 5.0 | 0.00 | 0.00 | 0.00 | 81 | 1009.6 |
| 20260509235748 | 61 | 213 | 0.0 | 5.0 | 0.00 | 0.00 | 0.00 | 81 | 1009.5 |
| 20260509235027 | 61 | 227 | 0.0 | 0.0 | 0.00 | 0.00 | 0.00 | 81 | 1009.7 |
| 20260509234514 | 61 | 229 | 0.0 | 3.0 | 0.00 | 0.00 | 0.00 | 81 | 1009.8 |
| 20260509233959 | 61 | 253 | 0.0 | 3.0 | 0.00 | 0.00 | 0.00 | 80 | 1009.9 |
| 20260509233459 | 61 | 233 | 0.0 | 4.0 | 0.00 | 0.00 | 0.00 | 81 | 1009.9 |
| 20260509232940 | 62 | 223 | 1.0 | 6.0 | 0.00 | 0.00 | 0.00 | 81 | 1009.8 |
| 20260509232441 | 62 | 232 | 1.0 | 7.0 | 0.00 | 0.00 | 0.00 | 80 | 1009.9 |
| 20260509231938 | 62 | 265 | 1.0 | 7.0 | 0.00 | 0.00 | 0.00 | 80 | 1009.9 |
| 20260509231437 | 62 | 234 | 2.0 | 13.0 | 0.00 | 0.00 | 0.00 | 80 | 1010.1 |
| 20260509230931 | 62 | 238 | 2.0 | 13.0 | 0.00 | 0.00 | 0.00 | 79 | 1010.2 |
| 20260509230430 | 63 | 242 | 1.0 | 7.0 | 0.00 | 0.00 | 0.00 | 79 | 1010.4 |
| 20260509225929 | 63 | 221 | 1.0 | 6.0 | 0.00 | 0.00 | 0.00 | 79 | 1010.5 |
| 20260509225432 | 63 | 225 | 1.0 | 6.0 | 0.00 | 0.00 | 0.00 | 80 | 1010.5 |
| 20260509224927 | 64 | 234 | 0.0 | 5.0 | 0.00 | 0.00 | 0.00 | 79 | 1010.7 |
| 20260509224921 | 63 | 236 | 0.0 | 5.0 | 0.00 | 0.00 | 0.00 | 79 | 1010.6 |
| 20260509224148 | 64 | 239 | 1.0 | 7.0 | 0.00 | 0.00 | 0.00 | 79 | 1010.6 |
| 20260509223404 | 64 | 242 | 1.0 | 7.0 | 0.00 | 0.00 | 0.00 | 78 | 1010.6 |
| 20260509222849 | 64 | 220 | 1.0 | 9.0 | 0.00 | 0.00 | 0.00 | 78 | 1010.4 |
| 20260509222347 | 64 | 263 | 1.0 | 9.0 | 0.00 | 0.00 | 0.00 | 77 | 1010.1 |
| 20260509222216 | 64 | 230 | 1.0 | 7.0 | 0.00 | 0.00 | 0.00 | 76 | 1010.1 |
| 20260509222109 | 64 | 217 | 1.0 | 7.0 | 0.00 | 0.00 | 0.00 | 76 | 1010.3 |
| 20260509220824 | 64 | 229 | 0.0 | 5.0 | 0.00 | 0.00 | 0.00 | 77 | 1010.3 |
| 20260509220319 | 64 | 226 | 1.0 | 4.0 | 0.00 | 0.00 | 0.00 | 78 | 1010.4 |
| 20260509215819 | 64 | 226 | 2.0 | 11.0 | 0.00 | 0.00 | 0.00 | 78 | 1010.3 |
| 20260509215314 | 64 | 218 | 1.0 | 11.0 | 0.00 | 0.00 | 0.00 | 79 | 1010.4 |
| 20260509214815 | 63 | 121 | 0.0 | 0.0 | 0.00 | 0.00 | 0.00 | 78 | 1009.9 |
| 20260509214313 | 63 | 121 | 0.0 | 0.0 | 0.00 | 0.00 | 0.00 | 78 | 1009.9 |
| 20260509213748 | 63 | 121 | 0.0 | 0.0 | 0.00 | 0.01 | 0.00 | 78 | 1009.8 |
| 20260509213500 | 63 | 121 | 0.0 | 0.0 | 0.00 | 0.01 | 0.00 | 78 | 1009.7 |
| 20260509212720 | 63 | 121 | 0.0 | 0.0 | 0.00 | 0.01 | 0.00 | 78 | 1009.8 |
| 20260509212218 | 63 | 121 | 0.0 | 0.0 | 0.00 | 0.01 | 0.00 | 78 | 1009.6 |
| 20260509211718 | 63 | 121 | 0.0 | 0.0 | 0.00 | 0.01 | 0.00 | 78 | 1009.8 |
| 20260509211217 | 63 | 121 | 0.0 | 0.0 | 0.00 | 0.01 | 0.00 | 78 | 1009.7 |
| 20260509210658 | 63 | 121 | 0.0 | 0.0 | 0.00 | 0.01 | 0.00 | 78 | 1009.8 |
| 20260509210153 | 63 | 121 | 0.0 | 0.0 | 0.00 | 0.01 | 0.00 | 77 | 1009.8 |
| 20260509205643 | 64 | 121 | 0.0 | 0.0 | 0.00 | 0.01 | 0.00 | 77 | 1009.7 |
| 20260509205124 | 64 | 121 | 0.0 | 0.0 | 0.00 | 0.01 | 0.00 | 76 | 1009.7 |
| 20260509204616 | 64 | 121 | 0.0 | 0.0 | 0.00 | 0.01 | 0.00 | 76 | 1009.7 |
| 20260509204116 | 64 | 121 | 0.0 | 0.0 | 0.00 | 0.01 | 0.00 | 76 | 1009.5 |
| 20260509203601 | 64 | 121 | 0.0 | 1.0 | 0.00 | 0.01 | 0.00 | 76 | 1009.6 |
| 20260509203051 | 64 | 121 | 0.0 | 2.0 | 0.00 | 0.01 | 0.00 | 76 | 1009.6 |
| 20260509202546 | 64 | 121 | 0.0 | 2.0 | 0.00 | 0.01 | 0.00 | 76 | 1009.6 |
| 20260509202036 | 64 | 121 | 0.0 | 0.0 | 0.00 | 0.01 | 0.00 | 76 | 1009.6 |
| 20260509202024 | 64 | 121 | 0.0 | 0.0 | 0.00 | 0.01 | 0.00 | 75 | 1009.6 |
| 20260509201020 | 64 | 121 | 0.0 | 0.0 | 0.00 | 0.01 | 0.00 | 75 | 1009.6 |
| 20260509200516 | 64 | 121 | 0.0 | 0.0 | 0.00 | 0.01 | 0.00 | 75 | 1009.6 |
| 20260509200015 | 65 | 121 | 0.0 | 0.0 | 0.00 | 0.01 | 0.00 | 75 | 1009.5 |
| 20260509195513 | 65 | 121 | 0.0 | 0.0 | 0.00 | 0.01 | 0.00 | 75 | 1009.5 |
| 20260509195242 | 65 | 121 | 0.0 | 0.0 | 0.00 | 0.01 | 0.00 | 75 | 1009.4 |
| 20260509194505 | 66 | 121 | 0.0 | 0.0 | 0.00 | 0.01 | 0.00 | 73 | 1009.3 |
| 20260509194202 | 66 | 121 | 0.0 | 0.0 | 0.00 | 0.01 | 0.00 | 73 | 1009.3 |
| 20260509193424 | 66 | 121 | 0.0 | 0.0 | 0.00 | 0.01 | 0.00 | 72 | 1009.3 |
| 20260509193146 | 67 | 121 | 0.0 | 0.0 | 0.00 | 0.01 | 0.00 | 71 | 1009.4 |
| 20260509192402 | 67 | 121 | 0.0 | 0.0 | 0.00 | 0.01 | 0.00 | 70 | 1009.4 |
| 20260509191900 | 68 | 121 | 0.0 | 0.0 | 0.00 | 0.01 | 0.00 | 70 | 1009.3 |
| 20260509191352 | 68 | 121 | 0.0 | 0.0 | 0.00 | 0.01 | 0.00 | 71 | 1009.1 |
| 20260509190844 | 69 | 121 | 0.0 | 0.0 | 0.00 | 0.01 | 0.00 | 71 | 1009.3 |
| 20260509190337 | 69 | 121 | 0.0 | 0.0 | 0.00 | 0.01 | 0.00 | 70 | 1009.2 |
| 20260509185828 | 69 | 121 | 0.0 | 0.0 | 0.00 | 0.01 | 0.00 | 71 | 1009.2 |
| 20260509185320 | 70 | 121 | 0.0 | 0.0 | 0.00 | 0.01 | 0.00 | 71 | 1009.2 |
| 20260509184818 | 70 | 121 | 0.0 | 0.0 | 0.00 | 0.01 | 0.00 | 70 | 1009.2 |
| 20260509184317 | 70 | 121 | 0.0 | 1.0 | 0.00 | 0.01 | 0.00 | 69 | 1009.2 |
| 20260509183814 | 71 | 121 | 0.0 | 1.0 | 0.00 | 0.01 | 0.00 | 68 | 1009.0 |
| 20260509183312 | 71 | 121 | 0.0 | 0.0 | 0.00 | 0.01 | 0.00 | 68 | 1009.1 |
| 20260509183005 | 71 | 121 | 0.0 | 0.0 | 0.00 | 0.01 | 0.00 | 68 | 1009.2 |
| 20260509182231 | 72 | 121 | 0.0 | 0.0 | 0.00 | 0.01 | 0.00 | 69 | 1009.3 |
| 20260509181723 | 72 | 121 | 0.0 | 0.0 | 0.00 | 0.01 | 0.00 | 67 | 1009.3 |
| 20260509181448 | 73 | 121 | 0.0 | 1.0 | 0.00 | 0.01 | 0.00 | 64 | 1009.4 |
| 20260509180708 | 73 | 121 | 0.0 | 1.0 | 0.00 | 0.01 | 0.00 | 63 | 1009.4 |
| 20260509180205 | 73 | 121 | 0.0 | 1.0 | 0.00 | 0.01 | 0.00 | 61 | 1009.3 |
| 20260509175934 | 74 | 121 | 0.0 | 1.0 | 0.00 | 0.01 | 0.00 | 62 | 1009.4 |
| 20260509175143 | 74 | 121 | 0.0 | 0.0 | 0.00 | 0.01 | 0.00 | 62 | 1009.4 |
| 20260509174616 | 75 | 121 | 0.0 | 0.0 | 0.00 | 0.01 | 0.00 | 61 | 1009.3 |
| 20260509174115 | 75 | 121 | 0.0 | 1.0 | 0.00 | 0.01 | 0.00 | 60 | 1009.3 |
| 20260509173614 | 75 | 121 | 0.0 | 3.0 | 0.00 | 0.01 | 0.00 | 58 | 1009.2 |
| 20260509173112 | 76 | 121 | 1.0 | 3.0 | 0.00 | 0.01 | 0.00 | 57 | 1009.2 |
| 20260509172536 | 76 | 121 | 1.0 | 5.0 | 0.00 | 0.01 | 0.00 | 55 | 1009.2 |
| 20260509172035 | 76 | 121 | 2.0 | 5.0 | 0.00 | 0.01 | 0.00 | 54 | 1009.3 |
| 20260509171533 | 76 | 121 | 2.0 | 6.0 | 0.00 | 0.01 | 0.00 | 54 | 1009.5 |
| 20260509171305 | 77 | 121 | 2.0 | 6.0 | 0.00 | 0.01 | 0.00 | 54 | 1009.6 |
| 20260509170803 | 77 | 119 | 2.0 | 5.0 | 0.00 | 0.01 | 0.00 | 53 | 1009.5 |
| 20260509170023 | 78 | 124 | 1.0 | 5.0 | 0.00 | 0.01 | 0.00 | 53 | 1009.5 |
| 20260509165517 | 78 | 124 | 1.0 | 6.0 | 0.00 | 0.01 | 0.00 | 52 | 1009.5 |
| 20260509165012 | 78 | 124 | 1.0 | 6.0 | 0.00 | 0.01 | 0.00 | 51 | 1009.5 |
| 20260509164456 | 78 | 125 | 1.0 | 7.0 | 0.00 | 0.01 | 0.00 | 51 | 1009.4 |
| 20260509163956 | 78 | 126 | 1.0 | 6.0 | 0.00 | 0.01 | 0.00 | 52 | 1009.4 |
| 20260509163728 | 78 | 125 | 1.0 | 6.0 | 0.00 | 0.01 | 0.00 | 52 | 1009.5 |
| 20260509162937 | 78 | 124 | 0.0 | 6.0 | 0.00 | 0.01 | 0.00 | 54 | 1009.4 |
| 20260509162428 | 77 | 124 | 0.0 | 6.0 | 0.00 | 0.01 | 0.00 | 52 | 1009.5 |
| 20260509162150 | 77 | 124 | 0.0 | 4.0 | 0.00 | 0.01 | 0.00 | 54 | 1009.6 |
| 20260509161416 | 77 | 124 | 1.0 | 4.0 | 0.00 | 0.01 | 0.00 | 54 | 1009.6 |
| 20260509160904 | 77 | 124 | 1.0 | 4.0 | 0.00 | 0.01 | 0.00 | 54 | 1009.7 |
| 20260509160356 | 77 | 124 | 1.0 | 6.0 | 0.00 | 0.01 | 0.00 | 56 | 1009.6 |
| 20260509160115 | 77 | 123 | 1.0 | 7.0 | 0.00 | 0.01 | 0.00 | 52 | 1009.8 |
| 20260509155949 | 77 | 124 | 2.0 | 7.0 | 0.00 | 0.01 | 0.00 | 55 | 1009.7 |
| 20260509154836 | 78 | 137 | 1.0 | 5.0 | 0.00 | 0.01 | 0.00 | 52 | 1009.7 |
| 20260509154831 | 77 | 150 | 1.0 | 7.0 | 0.00 | 0.01 | 0.00 | 50 | 1009.8 |
| 20260509153821 | 78 | 138 | 1.0 | 6.0 | 0.00 | 0.01 | 0.00 | 49 | 1010.0 |
| 20260509153319 | 78 | 178 | 1.0 | 6.0 | 0.00 | 0.01 | 0.00 | 49 | 1009.8 |
| 20260509152818 | 78 | 131 | 1.0 | 9.0 | 0.00 | 0.01 | 0.00 | 51 | 1009.9 |
| 20260509152316 | 79 | 121 | 2.0 | 9.0 | 0.00 | 0.01 | 0.00 | 50 | 1009.9 |
| 20260509152043 | 79 | 121 | 3.0 | 11.0 | 0.00 | 0.01 | 0.00 | 51 | 1010.0 |
| 20260509151541 | 79 | 190 | 2.0 | 11.0 | 0.00 | 0.01 | 0.00 | 48 | 1009.9 |
| 20260509150808 | 79 | 202 | 1.0 | 7.0 | 0.00 | 0.01 | 0.00 | 50 | 1010.0 |
| 20260509150306 | 79 | 118 | 1.0 | 9.0 | 0.00 | 0.01 | 0.00 | 48 | 1010.0 |
| 20260509150015 | 79 | 126 | 1.0 | 9.0 | 0.00 | 0.01 | 0.00 | 50 | 1010.1 |
| 20260509145244 | 79 | 171 | 1.0 | 7.0 | 0.00 | 0.01 | 0.00 | 51 | 1010.1 |
| 20260509145016 | 79 | 127 | 0.0 | 7.0 | 0.00 | 0.01 | 0.00 | 51 | 1010.2 |
| 20260509144516 | 78 | 111 | 1.0 | 4.0 | 0.00 | 0.01 | 0.00 | 53 | 1010.3 |
| 20260509143720 | 77 | 144 | 2.0 | 10.0 | 0.00 | 0.01 | 0.00 | 53 | 1010.3 |
| 20260509143218 | 77 | 199 | 4.0 | 10.0 | 0.00 | 0.01 | 0.00 | 52 | 1010.3 |
| 20260509142721 | 77 | 123 | 2.0 | 9.0 | 0.00 | 0.01 | 0.00 | 55 | 1010.4 |
| 20260509142210 | 77 | 126 | 2.0 | 11.0 | 0.00 | 0.01 | 0.00 | 52 | 1010.5 |
| 20260509141710 | 78 | 170 | 3.0 | 11.0 | 0.00 | 0.01 | 0.00 | 52 | 1010.4 |
| 20260509141209 | 78 | 125 | 2.0 | 9.0 | 0.00 | 0.01 | 0.00 | 51 | 1010.4 |
| 20260509140709 | 78 | 121 | 1.0 | 6.0 | 0.00 | 0.01 | 0.00 | 50 | 1010.5 |
| 20260509140209 | 78 | 153 | 1.0 | 9.0 | 0.00 | 0.01 | 0.00 | 52 | 1010.5 |
| 20260509135712 | 78 | 217 | 1.0 | 9.0 | 0.00 | 0.01 | 0.00 | 50 | 1010.6 |
| 20260509135149 | 78 | 179 | 0.0 | 7.0 | 0.00 | 0.01 | 0.00 | 53 | 1010.6 |
| 20260509134913 | 78 | 161 | 0.0 | 4.0 | 0.00 | 0.01 | 0.00 | 52 | 1010.6 |
| 20260509134118 | 78 | 159 | 1.0 | 7.0 | 0.00 | 0.01 | 0.00 | 53 | 1010.6 |
| 20260509133610 | 78 | 184 | 1.0 | 7.0 | 0.00 | 0.01 | 0.00 | 53 | 1010.8 |
| 20260509133102 | 78 | 126 | 0.0 | 4.0 | 0.00 | 0.01 | 0.00 | 55 | 1010.8 |
| 20260509132601 | 77 | 126 | 1.0 | 7.0 | 0.00 | 0.01 | 0.00 | 49 | 1010.8 |
| 20260509132029 | 77 | 168 | 0.0 | 7.0 | 0.00 | 0.01 | 0.00 | 52 | 1010.8 |
| 20260509131528 | 77 | 193 | 1.0 | 10.0 | 0.00 | 0.01 | 0.00 | 51 | 1010.8 |
| 20260509131016 | 77 | 109 | 1.0 | 10.0 | 0.00 | 0.01 | 0.00 | 53 | 1010.9 |
| 20260509130512 | 77 | 131 | 1.0 | 7.0 | 0.00 | 0.01 | 0.00 | 53 | 1010.9 |
| 20260509130008 | 76 | 123 | 1.0 | 9.0 | 0.00 | 0.01 | 0.00 | 51 | 1010.8 |
| 20260509125740 | 76 | 205 | 3.0 | 10.0 | 0.00 | 0.02 | 0.00 | 50 | 1010.8 |
| 20260509124958 | 76 | 187 | 3.0 | 10.0 | 0.00 | 0.02 | 0.00 | 54 | 1010.9 |
| 20260509124453 | 75 | 138 | 3.0 | 9.0 | 0.00 | 0.02 | 0.00 | 55 | 1011.0 |
| 20260509123952 | 75 | 115 | 3.0 | 10.0 | 0.00 | 0.02 | 0.00 | 57 | 1011.0 |
| 20260509123722 | 75 | 125 | 2.0 | 10.0 | 0.00 | 0.02 | 0.00 | 57 | 1011.1 |
| 20260509122946 | 76 | 131 | 1.0 | 10.0 | 0.00 | 0.02 | 0.00 | 54 | 1011.0 |
| 20260509122446 | 76 | 192 | 1.0 | 10.0 | 0.00 | 0.02 | 0.00 | 55 | 1010.9 |
| 20260509121936 | 76 | 171 | 1.0 | 6.0 | 0.00 | 0.02 | 0.00 | 55 | 1010.8 |
| 20260509121430 | 76 | 200 | 2.0 | 7.0 | 0.00 | 0.02 | 0.00 | 52 | 1010.9 |
| 20260509120928 | 76 | 194 | 1.0 | 7.0 | 0.00 | 0.02 | 0.00 | 54 | 1010.9 |
| 20260509120428 | 76 | 140 | 1.0 | 7.0 | 0.00 | 0.02 | 0.00 | 54 | 1010.9 |
| 20260509115917 | 76 | 218 | 2.0 | 10.0 | 0.00 | 0.02 | 0.00 | 54 | 1010.9 |
| 20260509115418 | 76 | 186 | 2.0 | 10.0 | 0.00 | 0.02 | 0.00 | 56 | 1011.2 |
| 20260509114918 | 76 | 137 | 2.0 | 7.0 | 0.00 | 0.02 | 0.00 | 57 | 1011.1 |
| 20260509114416 | 75 | 132 | 1.0 | 5.0 | 0.00 | 0.02 | 0.00 | 59 | 1011.2 |
| 20260509114148 | 75 | 127 | 2.0 | 9.0 | 0.00 | 0.02 | 0.00 | 58 | 1011.2 |
| 20260509113406 | 75 | 140 | 1.0 | 9.0 | 0.00 | 0.02 | 0.00 | 56 | 1011.4 |
| 20260509112856 | 75 | 124 | 0.0 | 3.0 | 0.00 | 0.02 | 0.00 | 59 | 1011.5 |
| 20260509112352 | 74 | 131 | 0.0 | 3.0 | 0.00 | 0.02 | 0.00 | 57 | 1011.6 |
| 20260509111830 | 74 | 131 | 1.0 | 5.0 | 0.00 | 0.02 | 0.00 | 60 | 1011.5 |
| 20260509111322 | 73 | 131 | 1.0 | 6.0 | 0.00 | 0.02 | 0.00 | 63 | 1011.6 |
| 20260509110814 | 73 | 131 | 1.0 | 6.0 | 0.00 | 0.02 | 0.00 | 63 | 1011.8 |
| 20260509110314 | 73 | 130 | 1.0 | 5.0 | 0.00 | 0.02 | 0.00 | 62 | 1011.8 |
| 20260509105800 | 73 | 67 | 0.0 | 3.0 | 0.00 | 0.02 | 0.00 | 62 | 1011.9 |
| 20260509105244 | 73 | 67 | 0.0 | 3.0 | 0.00 | 0.02 | 0.00 | 63 | 1011.9 |
| 20260509104743 | 73 | 175 | 1.0 | 6.0 | 0.00 | 0.02 | 0.00 | 63 | 1011.9 |
| 20260509104236 | 72 | 184 | 1.0 | 6.0 | 0.00 | 0.02 | 0.00 | 64 | 1011.9 |
| 20260509103725 | 72 | 83 | 2.0 | 4.0 | 0.00 | 0.02 | 0.00 | 66 | 1011.9 |
| 20260509103226 | 72 | 46 | 2.0 | 4.0 | 0.00 | 0.02 | 0.00 | 63 | 1011.9 |
| 20260509102724 | 72 | 67 | 2.0 | 5.0 | 0.00 | 0.02 | 0.00 | 65 | 1012.0 |
| 20260509102222 | 71 | 117 | 2.0 | 5.0 | 0.00 | 0.02 | 0.00 | 66 | 1012.0 |
| 20260509101953 | 71 | 109 | 2.0 | 5.0 | 0.00 | 0.02 | 0.00 | 64 | 1011.9 |
| 20260509101436 | 71 | 109 | 1.0 | 5.0 | 0.00 | 0.02 | 0.00 | 65 | 1012.0 |
| 20260509100708 | 71 | 71 | 1.0 | 4.0 | 0.00 | 0.02 | 0.00 | 65 | 1012.1 |
| 20260509100144 | 70 | 71 | 0.0 | 4.0 | 0.00 | 0.02 | 0.00 | 64 | 1012.0 |
| 20260509095915 | 70 | 67 | 0.0 | 2.0 | 0.00 | 0.02 | 0.00 | 66 | 1012.0 |
| 20260509095130 | 70 | 67 | 0.0 | 3.0 | 0.00 | 0.02 | 0.00 | 65 | 1012.1 |
| 20260509094845 | 69 | 67 | 1.0 | 3.0 | 0.00 | 0.02 | 0.00 | 63 | 1012.2 |
| 20260509094345 | 69 | 67 | 1.0 | 3.0 | 0.00 | 0.02 | 0.00 | 66 | 1012.1 |
| 20260509093538 | 69 | 66 | 1.0 | 3.0 | 0.00 | 0.02 | 0.00 | 66 | 1012.0 |
| 20260509093015 | 69 | 340 | 1.0 | 3.0 | 0.00 | 0.02 | 0.00 | 65 | 1012.0 |
| 20260509092509 | 68 | 269 | 1.0 | 6.0 | 0.00 | 0.02 | 0.00 | 65 | 1012.0 |
| 20260509092228 | 68 | 269 | 1.0 | 6.0 | 0.00 | 0.02 | 0.00 | 66 | 1012.1 |
| 20260509091422 | 68 | 266 | 1.0 | 5.0 | 0.00 | 0.02 | 0.00 | 67 | 1011.9 |
| 20260509090846 | 68 | 255 | 1.0 | 4.0 | 0.00 | 0.02 | 0.00 | 66 | 1011.9 |
| 20260509090324 | 67 | 252 | 1.0 | 5.0 | 0.00 | 0.02 | 0.00 | 67 | 1012.0 |
| 20260509085816 | 67 | 218 | 1.0 | 6.0 | 0.00 | 0.02 | 0.00 | 68 | 1012.0 |
| 20260509085310 | 67 | 219 | 2.0 | 6.0 | 0.00 | 0.02 | 0.00 | 68 | 1012.2 |
| 20260509084812 | 67 | 312 | 2.0 | 7.0 | 0.00 | 0.02 | 0.00 | 67 | 1012.4 |
| 20260509084310 | 67 | 263 | 1.0 | 7.0 | 0.00 | 0.02 | 0.00 | 68 | 1012.3 |
| 20260509083808 | 67 | 255 | 1.0 | 5.0 | 0.00 | 0.02 | 0.00 | 67 | 1012.3 |
| 20260509083301 | 66 | 240 | 1.0 | 6.0 | 0.00 | 0.02 | 0.00 | 68 | 1012.3 |
| 20260509082754 | 66 | 237 | 1.0 | 6.0 | 0.00 | 0.02 | 0.00 | 70 | 1012.4 |
| 20260509082246 | 66 | 259 | 1.0 | 6.0 | 0.00 | 0.02 | 0.00 | 68 | 1012.3 |
| 20260509081743 | 65 | 206 | 1.0 | 6.0 | 0.00 | 0.02 | 0.00 | 69 | 1012.3 |
| 20260509081242 | 65 | 276 | 1.0 | 6.0 | 0.00 | 0.02 | 0.00 | 69 | 1012.4 |
| 20260509080736 | 65 | 249 | 1.0 | 6.0 | 0.00 | 0.02 | 0.00 | 70 | 1012.5 |
| 20260509080228 | 64 | 249 | 1.0 | 6.0 | 0.00 | 0.02 | 0.00 | 69 | 1012.4 |
| 20260509075722 | 64 | 210 | 1.0 | 7.0 | 0.00 | 0.02 | 0.00 | 71 | 1012.5 |
| 20260509075220 | 64 | 252 | 3.0 | 10.0 | 0.00 | 0.02 | 0.00 | 70 | 1012.4 |
| 20260509074946 | 63 | 236 | 3.0 | 10.0 | 0.00 | 0.02 | 0.00 | 70 | 1012.5 |
| 20260509074216 | 63 | 249 | 2.0 | 10.0 | 0.00 | 0.02 | 0.00 | 70 | 1012.4 |
| 20260509073947 | 62 | 227 | 2.0 | 7.0 | 0.00 | 0.02 | 0.00 | 71 | 1012.3 |
| 20260509073446 | 62 | 234 | 1.0 | 7.0 | 0.00 | 0.02 | 0.00 | 73 | 1012.3 |
| 20260509072710 | 62 | 207 | 1.0 | 7.0 | 0.00 | 0.02 | 0.00 | 72 | 1012.3 |
| 20260509072200 | 62 | 205 | 2.0 | 7.0 | 0.00 | 0.02 | 0.00 | 73 | 1012.3 |
| 20260509071928 | 62 | 223 | 3.0 | 7.0 | 0.00 | 0.02 | 0.00 | 72 | 1012.3 |
| 20260509071158 | 62 | 207 | 2.0 | 7.0 | 0.00 | 0.02 | 0.00 | 74 | 1012.4 |
| 20260509070659 | 61 | 209 | 2.0 | 9.0 | 0.00 | 0.02 | 0.00 | 74 | 1012.3 |
| 20260509070156 | 61 | 206 | 1.0 | 9.0 | 0.00 | 0.02 | 0.00 | 75 | 1012.3 |
| 20260509065653 | 61 | 220 | 1.0 | 6.0 | 0.00 | 0.02 | 0.00 | 75 | 1012.4 |
| 20260509065141 | 61 | 255 | 0.0 | 4.0 | 0.00 | 0.02 | 0.00 | 76 | 1012.3 |
| 20260509064638 | 61 | 229 | 0.0 | 3.0 | 0.00 | 0.02 | 0.00 | 76 | 1012.4 |
| 20260509064141 | 60 | 213 | 0.0 | 1.0 | 0.00 | 0.02 | 0.00 | 76 | 1012.3 |
| 20260509063956 | 60 | 168 | 0.0 | 1.0 | 0.00 | 0.02 | 0.00 | 77 | 1012.2 |
| 20260509063848 | 60 | 200 | 0.0 | 1.0 | 0.00 | 0.02 | 0.00 | 77 | 1012.3 |
| 20260509062557 | 60 | 168 | 0.0 | 1.0 | 0.00 | 0.02 | 0.00 | 78 | 1012.2 |
| 20260509062034 | 59 | 168 | 0.0 | 2.0 | 0.00 | 0.02 | 0.00 | 78 | 1012.2 |
| 20260509061520 | 59 | 168 | 0.0 | 2.0 | 0.00 | 0.02 | 0.00 | 78 | 1012.1 |
| 20260509061018 | 59 | 168 | 0.0 | 1.0 | 0.00 | 0.02 | 0.00 | 79 | 1012.1 |
| 20260509060518 | 59 | 165 | 0.0 | 3.0 | 0.00 | 0.02 | 0.00 | 79 | 1012.2 |
| 20260509060000 | 58 | 192 | 0.0 | 3.0 | 0.00 | 0.02 | 0.00 | 79 | 1012.0 |
| 20260509055500 | 58 | 198 | 0.0 | 0.0 | 0.00 | 0.02 | 0.00 | 79 | 1012.1 |
| 20260509054946 | 58 | 157 | 0.0 | 1.0 | 0.00 | 0.02 | 0.00 | 80 | 1012.0 |
| 20260509054436 | 58 | 156 | 0.0 | 1.0 | 0.00 | 0.02 | 0.00 | 81 | 1011.9 |
| 20260509054201 | 57 | 155 | 0.0 | 1.0 | 0.00 | 0.02 | 0.00 | 81 | 1011.8 |
| 20260509053423 | 57 | 167 | 0.0 | 4.0 | 0.00 | 0.02 | 0.00 | 82 | 1011.9 |
| 20260509052915 | 57 | 167 | 0.0 | 4.0 | 0.00 | 0.02 | 0.00 | 82 | 1011.8 |
| 20260509052414 | 57 | 180 | 0.0 | 4.0 | 0.00 | 0.02 | 0.00 | 83 | 1011.9 |
| 20260509051914 | 57 | 142 | 0.0 | 4.0 | 0.00 | 0.02 | 0.00 | 83 | 1012.0 |
| 20260509051630 | 56 | 190 | 0.0 | 2.0 | 0.00 | 0.02 | 0.00 | 83 | 1011.8 |
| 20260509050853 | 56 | 146 | 0.0 | 1.0 | 0.00 | 0.02 | 0.00 | 84 | 1011.9 |
| 20260509050350 | 56 | 182 | 0.0 | 2.0 | 0.00 | 0.02 | 0.00 | 84 | 1011.9 |
| 20260509045841 | 56 | 169 | 0.0 | 4.0 | 0.00 | 0.02 | 0.00 | 85 | 1011.8 |
| 20260509045332 | 56 | 192 | 0.0 | 4.0 | 0.00 | 0.02 | 0.00 | 85 | 1011.8 |
| 20260509044824 | 56 | 121 | 0.0 | 3.0 | 0.00 | 0.02 | 0.00 | 85 | 1011.7 |
| 20260509044316 | 56 | 155 | 0.0 | 3.0 | 0.00 | 0.02 | 0.00 | 85 | 1011.6 |
| 20260509043809 | 56 | 155 | 0.0 | 3.0 | 0.00 | 0.02 | 0.00 | 86 | 1011.5 |
| 20260509043300 | 56 | 170 | 0.0 | 2.0 | 0.00 | 0.02 | 0.00 | 86 | 1011.6 |
| 20260509042724 | 56 | 171 | 0.0 | 2.0 | 0.00 | 0.02 | 0.00 | 86 | 1011.7 |
| 20260509042218 | 56 | 140 | 0.0 | 3.0 | 0.00 | 0.02 | 0.00 | 86 | 1011.5 |
| 20260509041718 | 56 | 140 | 0.0 | 4.0 | 0.00 | 0.02 | 0.00 | 87 | 1011.6 |
| 20260509041444 | 55 | 140 | 0.0 | 5.0 | 0.00 | 0.02 | 0.00 | 88 | 1011.5 |
| 20260509040933 | 55 | 189 | 0.0 | 5.0 | 0.00 | 0.02 | 0.00 | 89 | 1011.5 |
| 20260509040154 | 54 | 121 | 0.0 | 4.0 | 0.00 | 0.02 | 0.00 | 90 | 1011.4 |
| 20260509035632 | 54 | 121 | 0.0 | 2.0 | 0.00 | 0.02 | 0.00 | 90 | 1011.4 |
| 20260509035120 | 54 | 121 | 0.0 | 0.0 | 0.00 | 0.02 | 0.00 | 90 | 1011.5 |
| 20260509034842 | 54 | 121 | 0.0 | 0.0 | 0.00 | 0.02 | 0.00 | 90 | 1011.4 |
| 20260509034054 | 53 | 121 | 0.0 | 0.0 | 0.00 | 0.02 | 0.00 | 90 | 1011.5 |
| 20260509033813 | 53 | 121 | 0.0 | 0.0 | 0.00 | 0.02 | 0.00 | 89 | 1011.5 |
| 20260509033020 | 53 | 121 | 0.0 | 0.0 | 0.00 | 0.02 | 0.00 | 89 | 1011.5 |
| 20260509032516 | 53 | 121 | 0.0 | 0.0 | 0.00 | 0.02 | 0.00 | 88 | 1011.5 |